,

(GMT )
Resolute

Weather History for CYRB - September, 2013

Change the Weather History Date:

Monday, September 16, 2013

  Actual Average Record
Temperature  
Mean Temperature 17 °F -  
Max Temperature 24 °F 26 °F 35 °F (1998)
Min Temperature 10 °F 20 °F 6 °F (1997)
Degree Days  
Heating Degree Days 48    
Moisture  
Dew Point 15 °F    
Average Humidity 86    
Maximum Humidity 93    
Minimum Humidity 77    
Precipitation  
Precipitation 0.00 in - - ()
Sea Level Pressure  
Sea Level Pressure 29.95 in    
Wind  
Wind Speed 19 mph ()    
Max Wind Speed 29 mph    
Max Gust Speed 33 mph    
Visibility 14.2 miles    
Events Snow    
Averages and records for this station are not official NWS values.
T = Trace of Precipitation, MM = Missing Value Source: Averaged Metar Reports

Daily Weather History Graph

Daily Weather History Graph

Search for Another Location

Airport or City:

Trip Planner

Search our weather history database for the weather conditions in past years. The results will help you decide how hot, cold, wet, or windy it might be!

Date:

Astronomy

Sep. 16, 2013 Rise Set
Actual Time 6:25 AM CDT 8:00 PM CDT
Civil Twilight 4:59 AM CDT 9:25 PM CDT
Nautical Twilight 2:26 AM CDT 11:48 PM CDT
Astronomical Twilight Sun does not set Sun does not set
Moon 7:40 PM CDT (9/16) 12:39 AM CDT (9/16)
Length of Visible Light 16h 25m
Length of Day
13h 35m
Waxing Gibbous, 90% of the Moon is Illuminated
Sep 16
Waxing Gibbous
Sep 19
Full
Sep 26
Last Quarter
Oct 4
New
Oct 11
First Quarter

Hourly Weather History & Observations

Time (CDT) Temp. Windchill Dew Point Humidity Pressure Visibility Wind Dir Wind Speed Gust Speed Precip Events Conditions
12:00 AM 21.2 °F 6.4 °F 17.6 °F 86% 30.05 in 15.0 mi NE 18.4 mph - N/A   Scattered Clouds
1:00 AM 21.2 °F 6.0 °F 19.4 °F 93% 30.03 in 15.0 mi NE 19.6 mph - N/A   Scattered Clouds
2:00 AM 23.0 °F 8.0 °F 21.2 °F 93% 30.02 in 15.0 mi NNE 20.7 mph - N/A   Mostly Cloudy
3:00 AM 23.0 °F 6.6 °F 19.4 °F 86% 30.00 in 15.0 mi NE 25.3 mph - N/A Snow Low Drifting Snow
4:00 AM 23.0 °F 7.2 °F 19.4 °F 86% 30.00 in 15.0 mi NNE 23.0 mph - N/A Snow Low Drifting Snow
5:00 AM 21.2 °F 4.5 °F 19.4 °F 93% 29.99 in 15.0 mi NE 24.2 mph - N/A Snow Low Drifting Snow
6:00 AM 21.2 °F 4.5 °F 19.4 °F 93% 29.98 in 15.0 mi NE 24.2 mph - N/A Snow Low Drifting Snow
7:00 AM 22 °F - 19 °F 82% 29.96 in 15 mi South 27.6 mph - - Snow Low Drifting Snow
7:00 AM 21.2 °F 5.2 °F 19.4 °F 93% 29.96 in 15.0 mi NE 21.9 mph 27.6 mph N/A Snow Low Drifting Snow
8:00 AM 23.0 °F 6.3 °F 19.4 °F 86% 29.96 in 15.0 mi NE 26.5 mph 33.4 mph N/A Snow Low Drifting Snow
9:00 AM 23.0 °F 6.6 °F 19.4 °F 86% 29.94 in 15.0 mi NNE 25.3 mph 32.2 mph N/A Snow Low Drifting Snow
10:00 AM 21.2 °F 3.3 °F 19.4 °F 93% 29.92 in 15.0 mi NNE 28.8 mph - N/A Snow Low Drifting Snow
11:00 AM 21.2 °F 4.2 °F 17.6 °F 86% 29.93 in 15.0 mi NNE 25.3 mph 31.1 mph N/A Snow Low Drifting Snow
12:00 PM 21.2 °F 5.6 °F 15.8 °F 80% 29.93 in 15.0 mi NNE 20.7 mph - N/A   Scattered Clouds
1:00 PM 21.2 °F 5.6 °F 17.6 °F 86% 29.93 in 15.0 mi North 20.7 mph - N/A   Mostly Cloudy
2:00 PM 19.4 °F 2.1 °F 15.8 °F 86% 29.92 in 15.0 mi NNE 24.2 mph - N/A Snow Low Drifting Snow
3:00 PM 19.4 °F 2.8 °F 15.8 °F 86% 29.92 in 15.0 mi North 21.9 mph - N/A Snow Low Drifting Snow
4:00 PM 17.6 °F 3.7 °F 14.0 °F 86% 29.92 in 15.0 mi North 13.8 mph - N/A   Partly Cloudy
5:00 PM 15.8 °F -2.3 °F 12.2 °F 86% 29.91 in 15.0 mi North 23.0 mph - N/A   Partly Cloudy
6:00 PM 15.8 °F -1.9 °F 12.2 °F 86% 29.90 in 15.0 mi North 21.9 mph - N/A   Partly Cloudy
7:00 PM 13 °F - 9 °F 77% 29.91 in 10 mi North 16.1 mph - -   Scattered Clouds
7:00 PM 12.2 °F -4.3 °F 8.6 °F 85% 29.91 in 10.0 mi North 16.1 mph - N/A   Partly Cloudy
8:00 PM 12.2 °F -4.8 °F 8.6 °F 85% 29.91 in 15.0 mi NNW 17.3 mph - N/A   Scattered Clouds
9:00 PM 12.2 °F -4.8 °F 6.8 °F 79% 29.90 in 10.0 mi NNW 17.3 mph - N/A   Scattered Clouds
10:00 PM 10.4 °F -4.1 °F 6.8 °F 85% 29.91 in 10.0 mi WNW 11.5 mph - N/A   Scattered Clouds
11:00 PM 10.4 °F -4.8 °F 6.8 °F 85% 29.91 in 15.0 mi West 12.7 mph - N/A   Partly Cloudy